Location: Vallejo Observatory
(38.1221°N, 122.2109°W)
Time: 09:18:47
(UTC-08:00)

Daily predictions for brighter satellites

Satellite Brightness Start Highest point End
(mag) Time Altitude Azimuth Time Altitude Azimuth Time Altitude Azimuth
Cosmos 1975 Rocket 3.8 18:14:22 10° NNW 18:18:38 60° W 18:22:52 10° S
NOAA 12 4.4 18:14:47 10° SE 18:19:50 45° ENE 18:24:53 10° N
Cosmos 1386 Rocket 4.4 18:14:11 10° S 18:20:17 78° E 18:26:19 10° N
SKYMED 2 3.7 18:18:13 10° N 18:22:34 83° WNW 18:26:54 10° SSW
Cosmos 44 4.0 18:21:15 10° NW 18:25:31 51° WSW 18:29:39 10° SSE
Cosmos 1536 4.3 18:23:20 10° SE 18:25:54 17° E 18:28:30 10° NE
Cosmos 1633 3.2 18:25:23 10° SSE 18:28:44 34° E 18:32:06 10° NNE
GEOS 3 Rocket 4.4 18:24:02 10° NE 18:28:44 33° ESE 18:33:26 10° S
METEOR-M 4.2 18:25:46 10° SSE 18:30:58 57° ENE 18:36:13 10° N
Cosmos 1812 3.0 18:27:47 10° N 18:31:39 75° W 18:35:29 10° S
Okean 1 3.3 18:27:55 10° N 18:31:59 66° E 18:36:00 10° SSE
BREEZE-M DEB (TANK) 3.5 18:22:43 10° NW 18:32:23 70° NNE 18:35:30 10° ESE
COSMOS 2428 4.0 18:29:02 10° N 18:33:13 21° NE 18:37:22 10° ESE
Cosmos 1536 Rocket 3.6 18:33:10 10° N 18:37:38 63° E 18:42:03 10° SSE
Cosmos 1818 4.3 18:40:49 10° SW 18:46:09 57° NW 18:51:33 10° NNE
Cosmos 407 Rocket 4.4 18:41:22 10° SW 18:46:28 53° WNW 18:51:40 10° N
Cosmos 676 Rocket 4.3 18:46:00 10° SSW 18:51:09 70° WNW 18:56:22 10° NNE
Cosmos 2219 3.7 18:47:18 10° S 18:52:32 37° ESE 18:57:45 10° NE
Cosmos 2360 Rocket 2.2 18:46:56 10° NNW 18:52:33 61° ENE 18:58:08 10° SE
Cosmos 2219 Rocket 3.7 18:50:16 10° NNE 18:53:49 17° NE 18:55:22 15° ENE
Cosmos 1461 4.2 18:54:30 10° NW 18:58:19 41° WSW 19:02:12 10° S
Cosmos 1602 3.6 18:55:09 10° S 18:59:01 85° E 19:02:55 10° N
Cosmos 1570 Rocket 4.5 18:55:01 10° N 18:59:52 38° ENE 19:04:43 10° SE
Abrixas rocket 2.9 18:58:02 10° SSW 19:01:09 37° SE 19:02:26 26° E
Meteor 1-11 Rocket 3.7 18:57:12 10° S 19:02:56 75° E 19:08:51 10° NNE
Resurs 01 Rocket 1.9 18:59:26 10° SE 19:03:37 44° ENE 19:07:49 10° N
Cosmos 1300 Rocket 3.5 18:59:43 10° S 19:04:07 88° E 19:08:35 10° N
Cosmos 1140 Rocket 3.5 19:00:32 10° SSW 19:05:39 86° WNW 19:10:51 10° NNE
DELTA 2 R/B (1) 3.7 19:02:46 10° WNW 19:08:22 72° SSW 19:12:19 20° ESE
FREGAT/IRIS 3.3 19:06:17 10° S 19:09:19 59° W 19:12:23 10° NNW
Cosmos 614 Rocket 3.8 19:08:07 10° SSW 19:13:12 84° ESE 19:18:17 10° NNE
ALOS 2.2 19:08:49 10° SSE 19:13:28 78° ENE 19:18:09 10° N
Cosmos 1340 3.5 19:13:43 10° NNW 19:17:24 51° W 19:21:04 10° S
Helios 1A 3.6 19:17:35 31° E 19:17:55 32° ENE 19:21:37 10° N
Spot 2 Rocket 3.4 19:16:07 10° SSE 19:21:06 68° ENE 19:26:10 10° N
Resurs 1-3 3.6 19:16:51 10° SSE 19:21:09 58° ENE 19:25:28 10° N
Cosmos 2327 Rocket 4.5 19:16:22 10° SSE 19:22:25 57° E 19:28:35 10° NNE
OTV 4 3.1 19:23:56 10° S 19:24:05 10° S 19:24:05 10° S
Cosmos 2208 Rocket 4.0 19:21:41 10° NNW 19:27:06 62° ENE 19:31:09 18° SSE
Cosmos 2333 Rocket 3.3 19:23:28 10° N 19:28:12 26° ENE 19:28:17 26° ENE
HJ-1C 3.9 19:25:32 10° S 19:28:52 59° W 19:32:13 10° NNW
Cosmos 2181 Rocket 4.4 19:22:56 10° NNW 19:29:07 67° W 19:35:24 10° S
Tiangong 2 3.1 19:26:57 10° W 19:29:25 22° SW 19:30:33 18° S
Helios 1B rocket 2.6 19:30:51 41° ENE 19:31:45 48° E 19:35:45 10° S
Cosmos 1850 Rocket 4.1 19:28:06 10° SSW 19:33:23 77° WNW 19:38:44 10° NNE
Okean 2 4.1 19:31:31 10° N 19:34:27 36° NE 19:34:27 36° NE
Envisat 4.1 19:38:53 27° NE 19:38:53 27° NE 19:41:59 10° N
Genesis I 3.0 19:33:57 10° NNW 19:37:53 73° ENE 19:38:11 68° E
SAR-Lupe-4 3.7 19:39:05 59° NNE 19:39:05 59° NNE 19:42:10 10° N
Okean 1 Rocket 4.0 19:34:54 10° SSW 19:39:15 49° W 19:43:37 10° N
USA 229 DEB 4.0 19:32:24 10° NNW 19:39:21 52° NE 19:42:02 36° ESE
USA 229 4.0 19:32:30 10° NNW 19:39:28 52° NE 19:42:06 36° ESE
Cosmos 2074 Rocket 3.9 19:35:36 10° S 19:41:51 89° E 19:48:10 10° N
ATLAS 2A CENTAUR R/B 4.0 19:39:44 10° SSW 19:42:32 18° SSE 19:44:17 16° SSE
Hubble Space Telescope 3.0 19:40:33 10° SSW 19:42:10 14° S 19:42:10 14° S
Cosmos 2184 Rocket 3.9 19:38:38 10° S 19:44:58 90° W 19:51:17 10° N
FENGYUN 3A 4.5 19:44:00 10° S 19:49:14 51° W 19:54:32 10° NNW
Meteor 1-5 Rocket 4.3 19:43:46 10° S 19:49:45 86° W 19:55:42 10° N
CZ-2D R/B 3.5 19:54:14 60° SW 19:54:41 67° W 19:58:29 10° NNW
GPS 2-04 Rocket1 3.4 19:51:48 10° WSW 19:55:32 50° SSW 19:55:32 50° SSW
H-2A R/B 4.0 19:56:51 14° SSW 19:59:44 39° W 20:03:17 10° NNW
Cosmos 1025 Rocket 3.5 19:55:55 10° NNW 20:00:15 60° W 20:02:49 23° SSW
Gbstr 26 Del rocket 4.3 19:58:28 10° W 20:01:45 28° NNW 20:02:04 27° NNW
Nadezhda 3 Rocket 3.9 20:00:29 10° N 20:06:13 60° ENE 20:06:13 60° ENE
Atlas Centaur 2 4.5 20:07:38 10° S 20:08:55 12° S 20:08:55 12° S
NOSS 3-1 (C) 4.4 20:04:27 10° NNW 20:11:35 42° NE 20:11:49 42° NE
Cosmos 2154 Rocket 3.9 20:07:36 10° S 20:13:57 81° E 20:20:19 10° N
Cosmos 2285 Rocket 4.0 20:09:15 10° NNW 20:15:43 81° WSW 20:17:45 47° S
COSMOS 2428 3.2 20:12:18 10° NNW 20:17:52 57° WSW 20:19:51 37° SSW
Cosmos 2333 4.5 20:13:26 10° NNW 20:19:07 65° WSW 20:20:25 50° SSW
Cosmos 2237 Rocket 3.3 20:16:12 10° NNW 20:19:36 33° N 20:19:36 33° N
ATLAS CENTAUR R/B 4.3 20:24:54 10° SW 20:26:02 16° WSW 20:26:02 16° WSW
H-2A R/B 4.3 20:29:35 10° SSW 21:08:00 - E 20:31:36 24° S
NOSS 0 Rocket 4.2 20:31:34 10° NNW 20:36:31 60° NNW 20:36:31 60° NNW
Cosmos 2219 Rocket 2.7 20:32:44 10° NNW 20:37:09 54° NW 20:37:09 54° NW
Cosmos 2227 Rocket 4.4 20:36:44 10° SSW 20:37:22 13° SSW 20:37:22 13° SSW
SL-16 R/B 4.4 20:50:01 10° N 20:51:08 16° N 20:51:08 16° N
Cosmos 2333 Rocket 3.9 21:07:12 10° NW 21:10:20 30° NW 21:10:20 30° NW
